Regional Weather Roundup
Issued by NWS

Home | Current Version | Previous Version | Text Only | Print | Product List | Glossary Off
Versions: 1 2 3 4 5 6 7 8 9 10 11 12 13 14 15 16 17 18 19 20 21 22 23 24 25 26 27 28 29 30 31 32 33 34 35 36 37 38 39 40 41 42 43 44 45 46 47 48 49 50

000
ASUS44 KMEG 241210
RWRTN
TENNESSEE HOURLY STATE WEATHER ROUNDUP
NATIONAL WEATHER SERVICE MEMPHIS TN
700 AM CDT THU MAY 24 2018

TNZ002-004-019-021-049-052-054-088>092-241300-
WEST TENNESSEE

CITY           SKY/WX    TMP DP  RH WIND       PRES   REMARKS
MEMPHIS INTL   PTSUNNY   74  71  91 CALM      30.11R
NWS MEMPHIS      N/A     70 N/A N/A MISG        N/A
JACKSON        FAIR      68  68 100 CALM      30.12R FOG
DYERSBURG      FAIR      72  67  84 NE3       30.13R
COVINGTON      SUNNY     72  70  94 CALM      30.12R
PARIS          SUNNY     68  66  94 NE5       30.14R
HUNTINGDON     SUNNY     70  68  94 CALM      30.12R
LEXINGTON      SUNNY     68  66  94 CALM      30.12R
SELMER         SUNNY     70  68  94 CALM      30.12R
SAVANNAH       SUNNY     68  68 100 CALM      30.12R
$$

TNZ008-025-027-028-033-062-065-066-241300-
NORTH MIDDLE TENNESSEE

CITY           SKY/WX    TMP DP  RH WIND       PRES   REMARKS
NASHVILLE      FAIR      72  65  78 NE5       30.14R
DICKSON        SUNNY     68  66  94 E7        30.14R
PORTLAND       SUNNY     68  63  83 NE3       30.14R
CLARKSVILLE    FAIR      69  63  81 NE5       30.14R
SMYRNA         FAIR      69  66  90 N5        30.14R
MURFREESBORO   SUNNY     68  64  88 CALM      30.12R
COOKEVILLE     SUNNY     64  64 100 CALM      30.13S
LIVINGSTON     SUNNY     66  64  94 NE3       30.15R
CROSSVILLE     FAIR      65  62  90 NE3       30.18R
ROCKWOOD       SUNNY     68  63  83 CALM      30.16R
$$

TNZ061-075-076-078-094-096-097-241300-
SOUTH MIDDLE TENNESSEE

CITY           SKY/WX    TMP DP  RH WIND       PRES   REMARKS
LEWISBURG      SUNNY     66  64  94 CALM      30.13R
FAYETTEVILLE   SUNNY     70  66  88 NE5       30.12R
TULLAHOMA      SUNNY     68  64  88 NE3       30.13R
WINCHESTER     SUNNY     66  64  94 CALM      30.13R
MCMINNVILLE    FOG       64  64 100 NE3       30.14R VSB 1/4
COLUMBIA       SUNNY     66  66 100 CALM      30.12R
SHELBYVILLE    SUNNY     64  63  94 CALM      30.13R FOG
$$

TNZ017-018-042-046-047-241300-
NORTHEAST TENNESSEE

CITY           SKY/WX    TMP DP  RH WIND       PRES   REMARKS
TRI CITIES     FAIR      66  64  93 CALM      30.17R
ELIZABETHTON   FAIR      66  63  88 CALM      30.18R
GREENEVILLE    SUNNY     66  63  88 CALM      30.16R
$$

TNZ012-013-036-069-073-074-241300-
CENTRAL EAST TENNESSEE

CITY           SKY/WX    TMP DP  RH WIND       PRES   REMARKS
KNOXVILLE      PTSUNNY   70  65  84 N6        30.12R
OAK RIDGE      FAIR      71  66  84 E3        30.15R
DOWNTOWN KNOXV SUNNY     66  66 100 CALM      30.14R
GATLINBURG     MOSUNNY   68  64  88 CALM      30.13S
MORRISTOWN     SUNNY     70  63  78 E5        30.15R
JACKSBORO      SUNNY     66  64  94 CALM      30.19R
$$

TNZ083-085-099-241300-
SOUTHEAST TENNESSEE

CITY           SKY/WX    TMP DP  RH WIND       PRES   REMARKS
CHATTANOOGA    FAIR      72  65  78 CALM      30.12R
DAYTON         SUNNY     70  68  94 CALM      30.12R
$$

SKY/WX REPORTED AS FAIR MEANS FEW OR NO CLOUDS BELOW
12 THOUSAND FEET.





USA.gov is the U.S. government's official web portal to all federal, state and local government web resources and services.